Weather History for Sioux City, IA

Change the Weather History Date:

Friday, May 24, 2013

  Actual Average Record
Temperature  
Mean Temperature 59 °F 64 °F  
Max Temperature 74 °F 76 °F 98 °F (1939)
Min Temperature 44 °F 52 °F 34 °F (1924)
Degree Days  
Heating Degree Days 6 4  
Month to date heating degree days 218 160  
Since 1 July heating degree days 7046 6812  
Cooling Degree Days 0 2  
Month to date cooling degree days 39 34  
Year to date cooling degree days 40 45  
Growing Degree Days 8 (Base 50)    
Moisture  
Dew Point 44 °F    
Average Humidity 58    
Maximum Humidity 77    
Minimum Humidity 38    
Precipitation  
Precipitation 0.00 in 0.12 in 1.26 in (1996)
Month to date precipitation 3.24 2.85  
Year to date precipitation 11.29 9.09  
Snow  
Snow 0.00 in 0.00 in 0.00 in ()
Month to date snowfall 1.4 0.2  
Since 1 July snowfall 45.1 35.0  
Snow Depth 0.00 in    
Sea Level Pressure  
Sea Level Pressure 30.19 in    
Wind  
Wind Speed 15 mph (SE)    
Max Wind Speed 28 mph    
Max Gust Speed 35 mph    
Visibility 10 miles    
Events      
T = Trace of Precipitation, MM = Missing Value Source: NWS Daily Summary

Daily Weather History Graph

Daily Weather History Graph

Search for Another Location

Airport:

Trip Planner

Search our weather history database for the weather conditions in past years. The results will help you decide how hot, cold, wet, or windy it might be!

Date:

Astronomy

May. 24, 2013 Rise Set
Actual Time 5:55 AM CDT 8:49 PM CDT
Civil Twilight 5:22 AM CDT 9:22 PM CDT
Nautical Twilight 4:40 AM CDT 10:04 PM CDT
Astronomical Twilight 3:51 AM CDT 10:54 PM CDT
Moon 8:32 PM CDT (5/24) 5:29 AM CDT (5/24)
Length of Visible Light 16h 00m
Length of Day
14h 53m
Full, 100% of the Moon is Illuminated
May 24
Full
May 24
Full
May 31
Last Quarter
Jun 8
New
Jun 16
First Quarter

Hourly Weather History & Observations

Time (CDT) Temp. Windchill Dew Point Humidity Pressure Visibility Wind Dir Wind Speed Gust Speed Precip Events Conditions
12:52 AM 53.1 °F - 39.0 °F 59% 30.27 in 10.0 mi East 8.1 mph - N/A   Clear
1:52 AM 51.1 °F - 39.9 °F 66% 30.27 in 10.0 mi East 8.1 mph - N/A   Clear
2:52 AM 50.0 °F - 39.9 °F 68% 30.27 in 10.0 mi East 8.1 mph - N/A   Clear
3:52 AM 48.9 °F - 39.0 °F 69% 30.26 in 10.0 mi East 8.1 mph - N/A   Clear
4:52 AM 44.1 °F 40.8 °F 37.9 °F 79% 30.27 in 10.0 mi ESE 5.8 mph - N/A   Clear
5:52 AM 46.0 °F 43.9 °F 37.9 °F 73% 30.29 in 10.0 mi SSE 4.6 mph - N/A   Clear
6:52 AM 48.0 °F - 41.0 °F 77% 30.29 in 10.0 mi SE 8.1 mph - N/A   Clear
7:52 AM 54.0 °F - 42.1 °F 64% 30.29 in 10.0 mi SE 11.5 mph - N/A   Clear
8:52 AM 55.9 °F - 43.0 °F 62% 30.30 in 10.0 mi SSE 12.7 mph - N/A   Mostly Cloudy
9:52 AM 60.1 °F - 44.1 °F 55% 30.28 in 10.0 mi SSE 16.1 mph - N/A   Mostly Cloudy
10:52 AM 66.0 °F - 45.0 °F 47% 30.24 in 10.0 mi SSE 19.6 mph 27.6 mph N/A   Partly Cloudy
11:52 AM 69.1 °F - 45.0 °F 42% 30.23 in 10.0 mi South 19.6 mph 28.8 mph N/A   Partly Cloudy
12:52 PM 70.0 °F - 44.1 °F 39% 30.22 in 10.0 mi SSE 20.7 mph 31.1 mph N/A   Overcast
1:52 PM 72.0 °F - 46.0 °F 40% 30.19 in 10.0 mi SSE 23.0 mph 28.8 mph N/A   Overcast
2:52 PM 71.1 °F - 46.9 °F 42% 30.16 in 10.0 mi SSE 23.0 mph 28.8 mph N/A   Overcast
3:52 PM 73.9 °F - 48.0 °F 40% 30.12 in 10.0 mi SSE 24.2 mph 32.2 mph N/A   Mostly Cloudy
4:52 PM 72.0 °F - 46.9 °F 41% 30.09 in 10.0 mi SSE 20.7 mph 29.9 mph N/A   Partly Cloudy
5:52 PM 73.9 °F - 46.0 °F 37% 30.07 in 10.0 mi SSE 21.9 mph 29.9 mph N/A   Clear
6:52 PM 73.0 °F - 46.9 °F 39% 30.05 in 10.0 mi SSE 21.9 mph 27.6 mph N/A   Clear
7:52 PM 71.1 °F - 46.9 °F 42% 30.08 in 10.0 mi SSE 12.7 mph - N/A   Overcast
8:52 PM 69.1 °F - 48.0 °F 47% 30.08 in 10.0 mi SE 11.5 mph - N/A   Overcast
9:52 PM 66.9 °F - 48.0 °F 51% 30.08 in 10.0 mi SE 19.6 mph 24.2 mph N/A   Overcast
10:52 PM 64.9 °F - 46.9 °F 52% 30.11 in 10.0 mi SE 13.8 mph 21.9 mph N/A   Mostly Cloudy
11:52 PM 63.0 °F - 46.0 °F 54% 30.09 in 10.0 mi SE 11.5 mph - N/A   Clear